Regional Weather Roundup
Issued by NWS

Home | Current Version | Previous Version | Graphics & Text | Print | Product List | Glossary On
Versions: 1 2 3 4 5 6 7 8 9 10 11 12 13 14 15 16 17 18 19 20 21 22 23 24 25 26 27 28 29 30 31 32 33 34 35 36 37 38 39 40 41 42 43 44 45 46 47 48 49 50
000
ASUS43 KLSX 100907
RWRMO

WEATHER SUMMARY FOR MISSOURI
NATIONAL WEATHER SERVICE SPRINGFIELD MO
400 AM CDT THU JUL 10 2014

NOTE: "FAIR" INDICATES FEW OR NO CLOUDS BELOW 12,000 FEET WITH NO
       SIGNIFICANT WEATHER AND/OR OBSTRUCTIONS TO VISIBILITY.
       CURRENT SKY AND/OR WEATHER CONDITIONS ARE NOT AVAILABLE FOR
       CHILLICOTHE AND FARMINGTON.

MOZ001>031-035>038-043-044-053-054-101000-
...NORTHERN AND WESTERN MISSOURI...

CITY           SKY/WX    TMP DP  RH WIND       PRES   REMARKS
KANSAS CTY INT CLOUDY    68  58  70 SE9       30.03F
KANSAS C DTWN  MOCLDY    73  57  57 SE8       30.02F
LEE`S SUMMIT   PTCLDY    69  58  67 SE7       30.03F
ST JOSEPH      CLOUDY    70  59  68 S5        30.02F
CHILLICOTHE      N/A     67  60  78 SE3       30.06F
KIRKSVILLE     PTCLDY    60  56  86 SE5       30.07F

$$
MOZ066>068-077>081-088>096-101>105-101000-
...SOUTHWEST MISSOURI...

CITY           SKY/WX    TMP DP  RH WIND       PRES   REMARKS
SPRINGFIELD    CLEAR     66  59  78 SE6       30.05F
JOPLIN         CLEAR     66  59  78 E6        30.04F

$$
MOZ032>034-039>042-045>050-055>058-069>072-101000-
...CENTRAL MISSOURI...

CITY           SKY/WX    TMP DP  RH WIND       PRES   REMARKS
COLUMBIA       PTCLDY    63  59  87 E6        30.07F
JEFFERSON CITY PTCLDY    61  59  93 CALM      30.06F
ROLLA            N/A    N/A N/A N/A MISG      30.06F
SEDALIA        PTCLDY    65  60  84 SE5       30.07F
WHITEMAN AFB   CLOUDY    66  56  69 SE6       30.05S
OSAGE BEACH    CLEAR     63  57  82 CALM      30.06S

$$
MOZ051-052-059>065-101000-
...EAST CENTRAL MISSOURI...

CITY           SKY/WX    TMP DP  RH WIND       PRES   REMARKS
ST LOUIS INTL  PTCLDY    67  59  75 CALM      30.08F
SPIRIT OF STL  PTCLDY    60  58  92 CALM      30.06F
ST CHARLES     MOCLDY    63  60  90 CALM      30.07S

$$
MOZ072>076-082>087-097>100-106>115-101000-
...SOUTH CENTRAL AND SOUTHEAST MISSOURI...

CITY           SKY/WX    TMP DP  RH WIND       PRES   REMARKS
CAPE GIRARDEAU CLEAR     67  64  90 CALM      30.04F
FARMINGTON     PTCLDY    61  59  94 CALM      30.09S
POPLAR BLUFF   CLEAR     66  61  84 CALM      30.04S
WEST PLAINS    CLEAR     63  59  87 CALM      30.09S

$$


USA.gov is the U.S. government's official web portal to all federal, state and local government web resources and services.